This demonstration page uses our WeatherBlox Daily Observations layout. Learn more.

Left ArrowRight Arrow

Hourly Observations for April 4, 2015

Temp ( °F °C ) Dew Point ( °F °C ) Humidity (%) Winds ( mph kmh ) Pressure ( in mb ) Visibility ( mi km ) Precip ( " mm )
12:53 am 00:53 Clear 25 -3.9 17 -8.3 72 72 WSW 6 9 30.09 1019 10 16 N/A
1:53 am 01:53 Clear 27 -2.8 17 -8.3 66 66 N N/A 30.08 1019 10 16 N/A
2:53 am 02:53 Clear 24 -4.4 18 -7.8 77 77 W 6 9 30.08 1019 10 16 N/A
3:53 am 03:53 Clear 24 -4.4 18 -7.8 77 77 WSW 6 9 30.07 1018 10 16 N/A
4:53 am 04:53 Clear 24 -4.4 18 -7.8 77 77 WSW 8 13 30.06 1018 10 16 N/A
5:53 am 05:53 Clear 22 -5.6 17 -8.3 82 82 WSW 8 13 30.06 1018 10 16 N/A
6:53 am 06:53 Sunny 22 -5.6 17 -8.3 82 82 SW 10 17 30.06 1018 10 16 N/A
7:53 am 07:53 Sunny 25 -3.9 19 -7.2 78 78 SW 6 9 30.06 1018 10 16 N/A
8:53 am 08:53 Sunny 31 -0.6 22 -5.6 69 69 N N/A 30.06 1018 10 16 N/A
9:53 am 09:53 Sunny 39 3.9 21 -6.1 48 48 W 5 7 30.04 1017 10 16 N/A
10:53 am 10:53 Sunny 46 7.8 22 -5.6 38 38 N N/A 30.01 1016 10 16 N/A
11:53 am 11:53 Sunny 51 10.6 20 -6.7 29 29 ENE 3 6 29.99 1016 10 16 N/A
12:53 pm 12:53 Sunny 53 11.7 19 -7.2 26 26 undefined N/A 29.97 1015 10 16 N/A
1:53 pm 13:53 Mostly Sunny 55 12.8 18 -7.8 23 23 N N/A 29.93 1014 10 16 N/A
2:53 pm 14:53 Mostly Sunny 55 12.8 17 -8.3 22 22 W 8 13 29.91 1013 10 16 N/A
3:53 pm 15:53 Cloudy 54 12.2 18 -7.8 24 24 ESE 5 7 29.90 1013 10 16 N/A
4:53 pm 16:53 Cloudy 54 12.2 21 -6.1 28 28 ESE 9 15 29.89 1012 10 16 N/A
5:53 pm 17:53 Cloudy 52 11.1 21 -6.1 30 30 E 3 6 29.89 1012 10 16 N/A
6:53 pm 18:53 Cloudy with Light Rain 46 7.8 29 -1.7 51 51 NW 16 26 29.93 1014 8 13 N/A
7:07 pm 19:07 Cloudy with Light Rain 47 8.3 28 -2.2 48 48 undefined N/A 29.85 1011 10 16 N/A
7:53 pm 19:53 Cloudy 47 8.3 29 -1.7 50 50 SSE 9 15 29.92 1013 10 16 N/A
8:53 pm 20:53 Cloudy 44 6.7 32 undefined 63 63 ESE 12 19 29.91 1013 10 16 N/A
9:53 pm 21:53 Partly Cloudy 41 5 33 0.6 73 73 E 18 30 29.92 1013 10 16 N/A
10:53 pm 22:53 Cloudy 41 5 34 1.1 76 76 E 8 13 29.94 1014 10 16 N/A
11:04 pm 23:04 Cloudy with Rain 39 4 36 2 87 87 E 12 19 29.97 1015 4 6 N/A
11:53 pm 23:53 Cloudy with Light Rain 38 3.3 35 1.7 89 89 E 16 26 29.94 1014 10 16 0.08 2.03

Powered by AerisWeather